[[{"header":{"parameterUnit":"m.s-1","parameterCategory":1,"la1":30.2991,"la2":30.254,"lo1":-89.0895,"lo2":-89.0444,"dy":0.0017,"dx":0.0017,"nx":28,"ny":28,"refTime":"2024-12-19T09:00:00:Z","depth":0,"parameterNumber":2,"parameterNumberName":"U-component_of_WINDS"},"data":[0,0,0,0,0,0,0,0,0,0,0,0,0,0,0,0,0,0,0,0,0,0,0,0,0,0,0,0,0,0,0,0,0,0,0,0,0,0,0,0,0,0,0,0,0,0,0,0,0,0,0,0,0,0,0,0,0,0,1.8838,1.8839,0,1.8858,1.8858,1.8858,1.8841,1.884,1.884,1.8839,1.8857,1.8858,1.886,0,0,0,0,0,0,0,0,0,0,0,0,0,1.8787,1.8788,1.8838,1.8839,1.8839,1.8858,1.8858,1.8858,1.8841,1.884,1.8839,1.8839,1.8857,1.8858,1.886,0,0,0,0,0,0,0,0,0,0,0,0,0,1.8808,1.8788,1.8838,1.8833,1.8832,1.8858,1.8858,1.8858,1.8841,1.884,1.8839,1.8838,1.8857,1.8858,1.886,1.8891,0,0,1.8865,1.8866,0,0,0,0,0,0,0,0,1.8807,1.881,1.8833,1.8833,1.8833,1.8846,1.8846,1.8869,1.8842,1.8838,1.8839,1.8838,1.8854,1.8856,1.8862,1.8892,1.8893,1.8865,1.8866,1.8867,1.8868,0,0,0,0,0,0,0,1.8805,1.8809,1.8846,1.8834,1.8833,1.8829,1.8831,1.8851,1.8852,1.8838,1.8837,1.8839,1.8854,1.886,1.8862,1.8893,1.8865,1.8867,1.8868,1.8868,1.8952,1.8953,0,0,0,0,0,0,1.8804,1.8808,1.8845,1.8847,1.8817,1.8831,1.8833,1.8843,1.8851,1.8852,1.884,1.8839,1.8858,1.886,1.8863,1.8901,1.8867,1.8869,1.887,1.8951,1.8952,1.8953,0,0,0,0,0,0,1.8803,1.8808,1.8845,1.8827,1.8831,1.8833,1.8844,1.8844,1.885,1.8853,1.8853,1.8847,1.8857,1.886,1.8885,1.8901,1.8869,1.8871,1.8949,1.8951,1.8953,1.8977,0,0,0,0,0,0,1.8802,1.8808,1.8819,1.8827,1.8832,1.8866,1.8845,1.8845,1.8853,1.8851,1.8859,1.8859,1.8857,1.8882,1.8887,1.8903,1.8872,1.8948,1.895,1.8952,1.8974,1.8979,1.8983,0,0,0,0,0,1.88,1.8825,1.882,1.8825,1.8847,1.8867,1.887,1.8867,1.8855,1.8866,1.8869,1.8859,1.8899,1.8885,1.8889,1.8907,1.8947,1.8949,1.8952,1.8972,1.8978,1.8983,0,0,0,0,0,0,1.8818,1.8826,1.882,1.8848,1.8857,1.8864,1.8879,1.8873,1.8884,1.8882,1.8877,1.8879,1.8905,1.8908,1.8893,1.8938,1.8921,1.8925,1.8935,1.894,1.8945,1.8943,1.8874,0,0,0,0,0,1.8825,1.8841,1.8847,1.8871,1.8876,1.8877,1.8885,1.8882,1.8891,1.8895,1.8899,1.8907,1.8922,1.8931,1.8945,1.8975,1.8977,1.899,1.8994,1.8998,1.9,1.9018,1.9023,1.8962,1.8962,1.8962,0,0,1.884,1.8846,1.8856,1.8875,1.8881,1.8898,1.888,1.8898,1.891,1.8897,1.892,1.8924,1.8934,1.8961,1.8974,1.8965,1.9018,1.9001,1.9004,1.9005,1.9021,1.9027,1.9032,1.8964,1.8964,1.8963,0,0,1.8875,1.8882,1.8903,1.891,1.8921,1.8922,1.8927,1.8936,1.8938,1.8961,1.8952,1.8967,1.8992,1.9,1.9007,1.9048,1.9039,1.9052,1.9074,1.9091,1.9096,1.91,1.9115,1.912,1.9055,1.9056,1.9056,0,1.8892,1.8917,1.8914,1.8934,1.8942,1.8933,1.8954,1.8962,1.8976,1.8982,1.8973,1.9005,1.9011,1.904,1.9051,1.9057,1.9063,1.9051,1.9096,1.91,1.9104,1.9118,1.9123,1.9057,1.9057,1.9057,1.9057,0,1.8937,1.8955,1.897,1.8986,1.8996,1.9017,1.9018,1.9029,1.9026,1.9028,1.9053,1.906,1.9075,1.9082,1.9078,1.9112,1.9106,1.9096,1.9078,1.9111,1.9124,1.913,1.9059,1.9059,1.9058,1.9058,0,0,1.8981,1.8997,1.9003,1.901,1.9023,1.9036,1.9057,1.9073,1.9082,1.9093,1.911,1.9133,1.9125,1.9133,1.913,1.9145,1.9178,1.9134,1.9134,1.9142,1.9216,1.9223,1.9229,1.9173,1.9174,1.9175,1.9215,0,1.9017,1.9053,1.9053,1.9086,1.9103,1.9095,1.9113,1.9123,1.9126,1.9141,1.9144,1.916,1.9148,1.9153,1.9167,1.9171,1.9193,1.9168,1.9189,1.919,1.9186,1.9236,1.9243,1.928,1.922,1.9221,1.9222,0,1.9063,1.9077,1.9112,1.9123,1.913,1.9147,1.9162,1.9176,1.9187,1.9189,1.9199,1.9195,1.9216,1.9199,1.9229,1.9212,1.9221,1.9224,1.9226,1.9227,1.9207,1.9238,1.9291,1.9297,1.923,1.9229,1.9228,0,1.9092,1.9119,1.9144,1.9151,1.9165,1.9177,1.9183,1.9193,1.9203,1.9217,1.9224,1.9239,1.9248,1.926,1.9261,1.9248,1.9291,1.9273,1.9292,1.9293,1.9301,1.93,1.9356,1.9308,1.9308,1.9307,1.9307,0,1.9131,1.9153,1.9158,1.9173,1.9197,1.9197,1.9222,1.9227,1.9237,1.9253,1.9248,1.9263,1.9263,1.9279,1.928,1.9305,1.9309,1.931,1.931,1.931,1.931,1.9315,1.9312,1.9309,1.9309,1.9308,1.9308,0,1.9167,1.9171,1.9197,1.9209,1.9213,1.9231,1.9241,1.9256,1.9259,1.928,1.9285,1.9291,1.9309,1.9312,1.9333,1.9334,1.9363,1.9361,1.9359,1.9359,1.9378,1.9376,1.9438,1.9447,1.9393,1.9394,1.9394,0,1.9191,1.9208,1.9222,1.9233,1.9241,1.9258,1.9269,1.9271,1.9282,1.9298,1.9311,1.9329,1.9344,1.9374,1.938,1.9397,1.9394,1.9415,1.9396,1.9397,1.9394,1.9393,1.9395,1.9418,1.9419,1.9419,1.9419,0,1.9234,1.9235,1.9251,1.9269,1.9283,1.9296,1.9309,1.9318,1.9321,1.9335,1.9354,1.9366,1.9389,1.9407,1.9425,1.9431,1.9426,1.9426,1.9431,1.9431,1.9429,1.943,1.9369,1.9424,1.9423,1.9423,1.9423,1.9423,1.9264,1.9279,1.9292,1.9311,1.9321,1.9334,1.9349,1.9355,1.9372,1.9391,1.9391,1.9413,1.9425,1.9448,1.9456,1.9473,1.9466,1.9473,1.9475,1.9477,1.9479,1.9428,1.9476,1.9476,1.9476,1.9476,1.9476,0,1.9306,1.9315,1.9332,1.9351,1.9366,1.9362,1.9376,1.9389,1.9408,1.9421,1.9436,1.9459,1.9478,1.9486,1.9504,1.9517,1.9515,1.9521,1.952,1.9522,1.9484,1.9477,1.9523,1.9522,1.9522,1.9522,1.9522,1.9522,1.933,1.9355,1.9359,1.939,1.9399,1.942,1.9429,1.9441,1.9451,1.9478,1.9494,1.95,1.9511,1.953,1.9547,1.9549,1.9556,1.9564,1.9565,1.9529,1.9524,1.9519,1.9513,1.9565,1.9565,1.9601,1.9601,1.9601]},{"header":{"parameterUnit":"m.s-1","parameterCategory":1,"la1":30.2991,"la2":30.254,"lo1":-89.0895,"lo2":-89.0444,"dy":0.0017,"dx":0.0017,"nx":28,"ny":28,"refTime":"2024-12-19T09:00:00:Z","depth":0,"parameterNumber":3,"parameterNumberName":"V-component_of_WINDS"},"data":[0,0,0,0,0,0,0,0,0,0,0,0,0,0,0,0,0,0,0,0,0,0,0,0,0,0,0,0,0,0,0,0,0,0,0,0,0,0,0,0,0,0,0,0,0,0,0,0,0,0,0,0,0,0,0,0,0,0,-3.9552,-3.9553,0,-3.9655,-3.9656,-3.9657,-3.9658,-3.9657,-3.9656,-3.9654,-3.9756,-3.976,-3.9763,0,0,0,0,0,0,0,0,0,0,0,0,0,-3.9352,-3.9356,-3.9552,-3.9553,-3.9554,-3.9655,-3.9656,-3.9658,-3.9659,-3.9657,-3.9655,-3.9654,-3.9754,-3.9759,-3.9764,0,0,0,0,0,0,0,0,0,0,0,0,0,-3.9445,-3.9357,-3.9552,-3.9567,-3.9569,-3.9655,-3.9656,-3.9658,-3.9659,-3.9657,-3.9655,-3.9653,-3.9753,-3.9759,-3.9764,-3.984,0,0,-3.9782,-3.9785,0,0,0,0,0,0,0,0,-3.944,-3.9452,-3.9563,-3.9566,-3.9569,-3.9642,-3.9623,-3.9719,-3.9659,-3.9625,-3.9654,-3.9652,-3.9719,-3.9728,-3.9751,-3.9845,-3.9849,-3.9783,-3.9786,-3.9789,-3.9791,0,0,0,0,0,0,0,-3.9433,-3.9448,-3.9592,-3.9565,-3.9568,-3.9568,-3.9579,-3.9641,-3.9681,-3.9628,-3.9628,-3.964,-3.972,-3.9746,-3.9754,-3.985,-3.9783,-3.9788,-3.9792,-3.9794,-4.0012,-4.0014,0,0,0,0,0,0,-3.9424,-3.9443,-3.9589,-3.9596,-3.9498,-3.9573,-3.9585,-3.962,-3.9681,-3.9688,-3.9642,-3.964,-3.9736,-3.9747,-3.9757,-3.985,-3.9789,-3.9794,-3.9798,-4.0009,-4.0012,-4.0015,0,0,0,0,0,0,-3.942,-3.9437,-3.9585,-3.9519,-3.9538,-3.9578,-3.9618,-3.9623,-3.9649,-3.9692,-3.9699,-3.9661,-3.9735,-3.9749,-3.982,-3.9853,-3.9797,-3.9802,-4.0007,-4.001,-4.0013,-4.0036,0,0,0,0,0,0,-3.9414,-3.9436,-3.9466,-3.952,-3.9542,-3.9647,-3.962,-3.9627,-3.9659,-3.9658,-3.9711,-3.9718,-3.9735,-3.9811,-3.9826,-3.9861,-3.9807,-4.0004,-4.0008,-4.0012,-4.0032,-4.004,-4.0046,0,0,0,0,0,-3.9407,-3.9467,-3.9467,-3.9485,-3.958,-3.9649,-3.9661,-3.9681,-3.9662,-3.9692,-3.972,-3.9716,-3.9848,-3.9818,-3.9835,-3.9872,-4.0002,-4.0007,-4.0012,-4.0029,-4.0038,-4.0046,0,0,0,0,0,0,-3.9413,-3.9474,-3.9475,-3.9554,-3.9597,-3.9649,-3.9687,-3.9689,-3.9737,-3.9733,-3.9754,-3.9766,-3.9837,-3.9861,-3.9828,-3.9949,-3.9922,-3.9931,-3.993,-3.9939,-3.9945,-3.9938,-3.9812,0,0,0,0,0,-3.9424,-3.9476,-3.9526,-3.9591,-3.9612,-3.9646,-3.9677,-3.9689,-3.9733,-3.975,-3.9783,-3.9825,-3.9876,-3.9909,-3.9958,-4.0036,-4.0048,-4.007,-4.0077,-4.0082,-4.0089,-4.0133,-4.0143,-4.0031,-4.0031,-4.0031,0,0,-3.9446,-3.9486,-3.9517,-3.9593,-3.9627,-3.968,-3.9661,-3.9717,-3.9757,-3.9758,-3.9828,-3.9854,-3.9902,-3.9977,-4.0012,-4.0,-4.0123,-4.0089,-4.0093,-4.0097,-4.0139,-4.015,-4.0159,-4.0035,-4.0034,-4.0034,0,0,-3.9513,-3.9549,-3.9607,-3.9642,-3.9695,-3.9718,-3.9732,-3.9785,-3.9803,-3.9873,-3.9876,-3.9922,-4.0009,-4.0044,-4.0072,-4.0155,-4.0154,-4.017,-4.0206,-4.0248,-4.0257,-4.0265,-4.0294,-4.0305,-4.0177,-4.0177,-4.0177,0,-3.9533,-3.9614,-3.9636,-3.9694,-3.9727,-3.9733,-3.9792,-3.9825,-3.989,-3.9913,-3.9899,-4.001,-4.0042,-4.0126,-4.0146,-4.017,-4.0186,-4.0164,-4.0254,-4.0262,-4.027,-4.0298,-4.0309,-4.0179,-4.0179,-4.0179,-4.0179,0,-3.9637,-3.9693,-3.9733,-3.9799,-3.9837,-3.9895,-3.9925,-3.996,-3.9969,-3.9993,-4.0065,-4.0105,-4.0163,-4.0183,-4.0192,-4.0269,-4.026,-4.025,-4.0224,-4.0282,-4.0309,-4.032,-4.0182,-4.0181,-4.018,-4.018,0,0,-3.9708,-3.9787,-3.9802,-3.9832,-3.9892,-3.9935,-3.9993,-4.0052,-4.0082,-4.0127,-4.0176,-4.0251,-4.0243,-4.0276,-4.0288,-4.0325,-4.0389,-4.0311,-4.0312,-4.0324,-4.0476,-4.0483,-4.0496,-4.0389,-4.0391,-4.0392,-4.0472,0,-3.9782,-3.9887,-3.991,-4.0,-4.0052,-4.006,-4.011,-4.0152,-4.0176,-4.0223,-4.0249,-4.0302,-4.0287,-4.0307,-4.0345,-4.0373,-4.0419,-4.0368,-4.0433,-4.0435,-4.0421,-4.051,-4.0517,-4.059,-4.0483,-4.0485,-4.0486,0,-3.9881,-3.9932,-4.0028,-4.0082,-4.0105,-4.015,-4.0206,-4.0251,-4.0299,-4.0314,-4.0352,-4.0361,-4.0421,-4.0393,-4.0476,-4.044,-4.0468,-4.0486,-4.049,-4.0496,-4.0464,-4.0518,-4.0614,-4.0625,-4.0503,-4.0502,-4.05,0,-3.9924,-4.0016,-4.0085,-4.0111,-4.0176,-4.0208,-4.0236,-4.0282,-4.0316,-4.0365,-4.0387,-4.0442,-4.0471,-4.0512,-4.0536,-4.0513,-4.0617,-4.059,-4.063,-4.063,-4.0651,-4.0649,-4.0752,-4.067,-4.067,-4.0669,-4.0669,0,-4.0004,-4.0062,-4.0106,-4.0148,-4.0214,-4.0239,-4.0303,-4.0331,-4.0373,-4.042,-4.043,-4.0474,-4.0502,-4.055,-4.0569,-4.0635,-4.0648,-4.0661,-4.0665,-4.066,-4.0658,-4.0678,-4.0673,-4.0672,-4.0672,-4.0671,-4.0671,0,-4.0062,-4.0094,-4.017,-4.0227,-4.0242,-4.0288,-4.0336,-4.0377,-4.0403,-4.0463,-4.0478,-4.0517,-4.0575,-4.0602,-4.0673,-4.0685,-4.076,-4.0761,-4.0744,-4.0746,-4.0784,-4.078,-4.0903,-4.0921,-4.0827,-4.0828,-4.0828,0,-4.011,-4.0156,-4.0218,-4.0252,-4.0282,-4.0335,-4.0371,-4.0398,-4.0434,-4.0493,-4.0527,-4.0586,-4.0634,-4.0725,-4.0758,-4.0813,-4.0814,-4.0854,-4.0822,-4.0816,-4.0815,-4.0812,-4.0817,-4.0859,-4.086,-4.0861,-4.0862,0,-4.0193,-4.0207,-4.0258,-4.0317,-4.0359,-4.0406,-4.0451,-4.0478,-4.0512,-4.0552,-4.0612,-4.065,-4.0723,-4.0781,-4.0838,-4.0866,-4.0869,-4.0872,-4.0884,-4.0879,-4.0867,-4.0874,-4.076,-4.0868,-4.0868,-4.0867,-4.0867,-4.0866,-4.0247,-4.0289,-4.0339,-4.0397,-4.0435,-4.0478,-4.052,-4.0552,-4.0603,-4.0666,-4.0678,-4.0742,-4.0789,-4.0867,-4.0897,-4.0946,-4.0937,-4.0954,-4.0959,-4.0962,-4.0965,-4.086,-4.0956,-4.0956,-4.0956,-4.0956,-4.0956,0,-4.033,-4.0364,-4.0417,-4.0482,-4.0527,-4.0529,-4.058,-4.0617,-4.0674,-4.0719,-4.0767,-4.0836,-4.0892,-4.0932,-4.0989,-4.1021,-4.1024,-4.1035,-4.1032,-4.1039,-4.0969,-4.0953,-4.1031,-4.1031,-4.1031,-4.1031,-4.1031,-4.1031,-4.0378,-4.0449,-4.0469,-4.0558,-4.0591,-4.0655,-4.0684,-4.0724,-4.076,-4.0837,-4.0885,-4.0911,-4.0954,-4.1015,-4.1066,-4.1076,-4.1097,-4.1108,-4.1117,-4.1052,-4.1044,-4.1036,-4.1021,-4.1112,-4.1112,-4.1183,-4.1184,-4.1184]}]]